Regional Weather Roundup
Issued by NWS

Home | Current Version | Previous Version | Text Only | Print | Product List | Glossary On
Versions: 1 2 3 4 5 6 7 8 9 10 11 12 13 14 15 16 17 18 19 20 21 22 23 24 25 26 27 28 29 30 31 32 33 34 35 36 37 38 39 40 41 42 43 44 45 46 47 48 49 50
000
ASUS43 KDTX 230510
RWRMI
MICHIGAN HOURLY REGIONAL WEATHER ROUNDUP
NATIONAL WEATHER SERVICE DETROIT/PONTIAC MI
100 AM EDT SUN APR 23 2017

NOTE: "FAIR" INDICATES FEW OR NO CLOUDS BELOW 12,000 FEET WITH NO
SIGNIFICANT WEATHER AND/OR OBSTRUCTION TO VISIBILITY.

MIZ047>049-052>055-059>063-066>070-074>076-081>083-230600-
SOUTHEAST LOWER MICHIGAN

CITY           SKY/WX    TMP DP  RH WIND       PRES   REMARKS
ADRIAN         CLEAR     40  36  86 CALM      30.16S
ALMA           CLEAR     42  36  78 SW3       30.14S
ANN ARBOR      CLEAR     37  36  96 CALM      30.15S
BAD AXE        CLEAR     36  33  90 S3        30.14R
CARO           CLEAR     36  34  93 CALM      30.13S
DETROIT CITY   CLEAR     42  28  57 CALM      30.15S
DETROIT        CLEAR     45  32  60 CALM      30.16S
FLINT          CLEAR     39  34  82 CALM      30.15S
GROSSE ILE     CLEAR     40  34  79 CALM      30.15R
HILLSDALE      CLEAR     39  32  75 CALM      30.14S
HOWELL         CLEAR     40  32  74 CALM      30.15R

CITY           SKY/WX    TMP DP  RH WIND       PRES   REMARKS
JACKSON        CLEAR     43  35  73 SE3       30.15R
LAMBERTVILLE   CLEAR     38  36  91 CALM      30.15S
LANSING        CLEAR     43  34  70 CALM      30.15S
LAPEER         FAIR      38  34  84 CALM      30.15S
MASON          CLEAR     40  38  92 CALM      30.14S
MONROE         CLEAR     40  38  93 N6        30.14S
MT. CLEMENS    CLEAR     40  30  65 NW3       30.14R
PONTIAC        CLEAR     41  33  73 CALM      30.14S
PORT HOPE        N/A     38  30  73 CALM      30.11S
PORT HURON     CLEAR     32  30  93 CALM      30.15S
TRI CITIES     CLEAR     48  33  56 SW6       30.13F
MIDLAND        FAIR      40  35  81 CALM      30.12S
TROY           CLEAR     44  32  64 CALM      30.17S
SAGINAW HB     CLEAR     41  34  75 S5        30.13R
$$
MIZ043>046-050>051-056>058-064>065-071>073-077>080-230600-
SOUTHWEST LOWER MICHIGAN

CITY           SKY/WX    TMP DP  RH WIND       PRES   REMARKS
BATTLE CREEK   CLEAR     44  32  62 CALM      30.16R
BENTON HARBOR  CLEAR     35  30  82 CALM      30.16S
BIG RAPIDS     CLEAR     39  30  70 CALM      30.12S
COLDWATER      CLEAR     43  33  69 CALM      30.15R
FREMONT        FAIR      40  21  47 CALM      30.13F
HOLLAND        CLEAR     40  32  73 CALM      30.16S
GRAND RAPIDS   CLEAR     42  35  76 CALM      30.15S
IONIA          FAIR      45  34  65 SW6       30.14S
KALAMAZOO      CLEAR     45  28  51 N5        30.15S
LUDINGTON      CLEAR     33  32  94 CALM      30.12S
MARSHALL       CLEAR     39  31  74 CALM      30.14S
MOUNT PLEASANT CLEAR     47  32  54 W5        30.11F
MUSKEGON       CLEAR     40  31  70 CALM      30.14F
SOUTH HAVEN    CLEAR     35  30  82 CALM      30.16F
$$
MIZ016>042-230600-
NORTHERN LOWER MICHIGAN

CITY           SKY/WX    TMP DP  RH WIND       PRES   REMARKS
ALPENA         CLEAR     43  28  55 SW5       30.09S
BEAVER ISLAND  CLEAR     49  25  40 SW15G23   30.04S
BELLAIRE       CLEAR     34  31  88 CALM      30.08S
CADILLAC       CLEAR     34  30  86 CALM      30.10S
CHARLEVOIX     CLEAR     47  25  41 S6        30.08F
FRANKFORT      CLEAR     48  21  34 SW7       30.10S
GAYLORD        CLEAR     43  22  43 CALM      30.07F
GRAYLING       CLEAR     30  28  92 CALM      30.11S
HARBOR SPRINGS CLEAR     38  28  66 CALM      30.06F
HOUGHTON LAKE  CLEAR     41  39  93 CALM      30.11S
MANISTEE       CLEAR     34  30  85 CALM      30.11S
OSCODA         CLEAR     34  29  82 CALM      30.11S
PELLSTON       CLEAR     33  27  78 SE6       30.05F WCI  28
ROGERS CITY    CLEAR     45  28  52 S7        30.07F
TRAVERSE CITY  CLEAR     45  25  45 CALM      30.07F
$$
MIZ007>008-015-230600-
EASTERN UPPER MICHIGAN

CITY           SKY/WX    TMP DP  RH WIND       PRES   REMARKS
KINROSS        PTCLDY    41  25  53 S5        30.03
MACKINAC ISLAN CLEAR     43  25  49 S8        30.04F
NEWBERRY       CLEAR     41  28  58 SW10      30.02S
S. S. MARIE    CLOUDY    45  28  51 CALM      30.02F
MUNISING         N/A     45  31  58 S6        30.01F
$$
MIZ004>006-011>014-085-230600-
CENTRAL UPPER MICHIGAN

CITY           SKY/WX    TMP DP  RH WIND       PRES   REMARKS
MANISTIQUE     CLEAR     40  36  83 S8        30.02S
ESCANABA       CLEAR     43  35  73 W3        30.03R
MENOMINEE      CLEAR     50  36  58 SW7       30.07R
SAWYER-GWINN   CLEAR     45  32  61 N5        30.03S
$$
MIZ001>003-009>011-084-230600-
WESTERN UPPER MICHIGAN

CITY           SKY/WX    TMP DP  RH WIND       PRES   REMARKS
IRON MOUNTAIN  CLEAR     54  29  38 W9        30.02S
HOUGHTON       MOCLDY    46  38  73 N5        30.03S
COPPER HARBOR    N/A     43  40  89 N7        30.01S
IRONWOOD       CLEAR     44  38  79 CALM      30.06S
$$

ABBREVIATIONS USED IN REMARKS
   TC - TEMPERATURE IN CELSIUS
  WCI - WIND CHILL INDEX
   HX - HEAT INDEX
  VSB - VISIBILITY





USA.gov is the U.S. government's official web portal to all federal, state and local government web resources and services.